[[{"header":{"parameterUnit":"m.s-1","parameterCategory":1,"la1":30.2991,"la2":30.254,"lo1":-89.0895,"lo2":-89.0444,"dy":0.0017,"dx":0.0017,"nx":28,"ny":28,"refTime":"2024-06-21T03:00:00:Z","depth":0,"parameterNumber":2,"parameterNumberName":"U-component_of_WINDS"},"data":[0,0,0,0,0,0,0,0,0,0,0,0,0,0,0,0,0,0,0,0,0,0,0,0,0,0,0,0,0,0,0,0,0,0,0,0,0,0,0,0,0,0,0,0,0,0,0,0,0,0,0,0,0,0,0,0,0,0,-4.0506,-4.0505,0,-4.0392,-4.0391,-4.039,-4.022,-4.0217,-4.0214,-4.0211,-4.0097,-4.0097,-4.0097,0,0,0,0,0,0,0,0,0,0,0,0,0,-4.0582,-4.0581,-4.0506,-4.0505,-4.0504,-4.0392,-4.0391,-4.0389,-4.0221,-4.0217,-4.0213,-4.021,-4.0097,-4.0097,-4.0097,0,0,0,0,0,0,0,0,0,0,0,0,0,-4.0517,-4.0581,-4.0507,-4.0406,-4.0396,-4.0393,-4.0391,-4.0389,-4.0221,-4.0217,-4.0212,-4.0208,-4.0097,-4.0097,-4.0097,-4.0184,0,0,-4.0095,-4.0095,0,0,0,0,0,0,0,0,-4.0521,-4.0514,-4.0422,-4.0413,-4.0401,-4.0316,-4.0375,-4.032,-4.0223,-4.0288,-4.0211,-4.0206,-4.0174,-4.0167,-4.0155,-4.0178,-4.0173,-4.0095,-4.0095,-4.0095,-4.0095,0,0,0,0,0,0,0,-4.0525,-4.0518,-4.0461,-4.0421,-4.0408,-4.0368,-4.0353,-4.0364,-4.0257,-4.0282,-4.0269,-4.0258,-4.0167,-4.0156,-4.0151,-4.0172,-4.0095,-4.0095,-4.0095,-4.0095,-4.0262,-4.0266,0,0,0,0,0,0,-4.0544,-4.0523,-4.0465,-4.0458,-4.0451,-4.037,-4.0354,-4.0348,-4.0257,-4.0238,-4.0262,-4.025,-4.0159,-4.0152,-4.0147,-4.0243,-4.0095,-4.0095,-4.0094,-4.0257,-4.0263,-4.0268,0,0,0,0,0,0,-4.0547,-4.0541,-4.0469,-4.0487,-4.0475,-4.0373,-4.0368,-4.0348,-4.0336,-4.0241,-4.0222,-4.027,-4.0155,-4.0147,-4.0176,-4.0237,-4.0094,-4.0094,-4.0252,-4.0259,-4.0265,-4.0437,0,0,0,0,0,0,-4.0549,-4.0542,-4.0574,-4.0489,-4.0474,-4.05,-4.0371,-4.0349,-4.0336,-4.032,-4.0244,-4.0227,-4.0151,-4.0177,-4.0176,-4.0234,-4.0094,-4.0246,-4.0255,-4.0263,-4.0426,-4.0449,-4.0469,0,0,0,0,0,-4.0553,-4.0627,-4.0576,-4.057,-4.0511,-4.0504,-4.0496,-4.0406,-4.0342,-4.0373,-4.0312,-4.0229,-4.0231,-4.0182,-4.0178,-4.0237,-4.0242,-4.0252,-4.0263,-4.0416,-4.0444,-4.0469,0,0,0,0,0,0,-4.0722,-4.0614,-4.0556,-4.0605,-4.0565,-4.0475,-4.0511,-4.0439,-4.0417,-4.0403,-4.0293,-4.0278,-4.0321,-4.0281,-4.0229,-4.0317,-4.0224,-4.0234,-4.0341,-4.0368,-4.0389,-4.0398,-4.0093,0,0,0,0,0,-4.0765,-4.0767,-4.0673,-4.0725,-4.0708,-4.0614,-4.0607,-4.0542,-4.0496,-4.0478,-4.0419,-4.0379,-4.037,-4.0367,-4.0353,-4.0419,-4.0401,-4.0458,-4.048,-4.0499,-4.0509,-4.0542,-4.0567,-4.0303,-4.0303,-4.0302,0,0,-4.0853,-4.0795,-4.0803,-4.0757,-4.0718,-4.0724,-4.06,-4.0611,-4.0615,-4.048,-4.0503,-4.046,-4.0407,-4.0456,-4.0474,-4.0424,-4.0578,-4.0512,-4.0528,-4.0527,-4.0556,-4.0581,-4.0603,-4.031,-4.0308,-4.0307,0,0,-4.1018,-4.0974,-4.1012,-4.0976,-4.0919,-4.0856,-4.0866,-4.0788,-4.0753,-4.0775,-4.0674,-4.0677,-4.0664,-4.0632,-4.0613,-4.0768,-4.0692,-4.0767,-4.0881,-4.0915,-4.0936,-4.0954,-4.101,-4.1031,-4.0778,-4.0778,-4.0778,0,-4.1136,-4.1139,-4.1042,-4.1059,-4.1043,-4.0921,-4.096,-4.093,-4.0873,-4.0865,-4.081,-4.0792,-4.0748,-4.0788,-4.0826,-4.0815,-4.0823,-4.0775,-4.0941,-4.0958,-4.0973,-4.1025,-4.1047,-4.0788,-4.0786,-4.0785,-4.0785,0,-4.1287,-4.1292,-4.133,-4.1277,-4.1265,-4.1294,-4.1202,-4.1202,-4.1138,-4.1082,-4.1107,-4.105,-4.1024,-4.1028,-4.0966,-4.106,-4.1031,-4.0961,-4.0864,-4.1009,-4.1057,-4.1076,-4.0801,-4.0798,-4.0795,-4.0793,0,0,-4.1554,-4.1447,-4.1463,-4.1438,-4.1367,-4.1369,-4.1393,-4.1367,-4.137,-4.1334,-4.1353,-4.1345,-4.128,-4.126,-4.1193,-4.1223,-4.135,-4.1148,-4.1145,-4.1188,-4.1451,-4.1505,-4.153,-4.13,-4.1303,-4.1306,-4.1456,0,-4.1705,-4.1738,-4.1652,-4.1708,-4.1712,-4.1597,-4.1618,-4.1578,-4.1527,-4.1523,-4.1467,-4.1464,-4.1377,-4.1364,-4.1388,-4.133,-4.1402,-4.1318,-4.1317,-4.1318,-4.1333,-4.1554,-4.1611,-4.1755,-4.1474,-4.1477,-4.1479,0,-4.1884,-4.1858,-4.1915,-4.1842,-4.184,-4.1861,-4.183,-4.1828,-4.1781,-4.1741,-4.172,-4.1643,-4.1662,-4.1571,-4.1597,-4.1542,-4.1537,-4.1509,-4.1512,-4.1508,-4.1407,-4.1557,-4.1799,-4.1821,-4.1507,-4.1505,-4.1503,0,-4.2074,-4.2053,-4.2084,-4.2067,-4.1982,-4.1999,-4.1965,-4.1913,-4.1903,-4.1878,-4.187,-4.1848,-4.1836,-4.1821,-4.174,-4.168,-4.1777,-4.1678,-4.1746,-4.1749,-4.1771,-4.1771,-4.2016,-4.1769,-4.1768,-4.1768,-4.1767,0,-4.2251,-4.2291,-4.2169,-4.2188,-4.2229,-4.2131,-4.2175,-4.2129,-4.2084,-4.2094,-4.1993,-4.2005,-4.1897,-4.1897,-4.1834,-4.1867,-4.1862,-4.1832,-4.1815,-4.1841,-4.1845,-4.1836,-4.1824,-4.1773,-4.1772,-4.1771,-4.177,0,-4.247,-4.2389,-4.2416,-4.2334,-4.2315,-4.2349,-4.2279,-4.2295,-4.2237,-4.2251,-4.2249,-4.2159,-4.2154,-4.2072,-4.205,-4.2008,-4.2066,-4.203,-4.2082,-4.2071,-4.2144,-4.2138,-4.2391,-4.242,-4.2155,-4.2157,-4.216,0,-4.2588,-4.2615,-4.2537,-4.2536,-4.2506,-4.2506,-4.2495,-4.24,-4.2394,-4.2343,-4.2366,-4.2352,-4.2337,-4.2335,-4.2269,-4.2251,-4.2214,-4.2304,-4.2211,-4.2237,-4.2217,-4.2216,-4.2219,-4.2324,-4.2328,-4.233,-4.2333,0,-4.2807,-4.2766,-4.2754,-4.273,-4.2721,-4.2697,-4.2667,-4.2672,-4.2568,-4.2567,-4.256,-4.2548,-4.2526,-4.2514,-4.2486,-4.2451,-4.2376,-4.2363,-4.2378,-4.2405,-4.2434,-4.242,-4.2136,-4.2357,-4.2355,-4.2353,-4.2352,-4.2351,-4.2978,-4.2998,-4.2946,-4.2937,-4.2905,-4.288,-4.2891,-4.2835,-4.2828,-4.2802,-4.2747,-4.2749,-4.2703,-4.2656,-4.2629,-4.2631,-4.2585,-4.2607,-4.2612,-4.2619,-4.2634,-4.2434,-4.2625,-4.2624,-4.2624,-4.2623,-4.2622,0,-4.3192,-4.3154,-4.3147,-4.3108,-4.3102,-4.3031,-4.2994,-4.2994,-4.2998,-4.296,-4.2947,-4.2941,-4.293,-4.2865,-4.2847,-4.2861,-4.2826,-4.2859,-4.2857,-4.2851,-4.2675,-4.2664,-4.2888,-4.2888,-4.2888,-4.2888,-4.2888,-4.2888,-4.3303,-4.3333,-4.3287,-4.33,-4.3261,-4.3262,-4.3248,-4.3225,-4.3195,-4.3192,-4.3183,-4.314,-4.3091,-4.3069,-4.3057,-4.3038,-4.3036,-4.3082,-4.3052,-4.2889,-4.2863,-4.2839,-4.2828,-4.3082,-4.3083,-4.3227,-4.3229,-4.323]},{"header":{"parameterUnit":"m.s-1","parameterCategory":1,"la1":30.2991,"la2":30.254,"lo1":-89.0895,"lo2":-89.0444,"dy":0.0017,"dx":0.0017,"nx":28,"ny":28,"refTime":"2024-06-21T03:00:00:Z","depth":0,"parameterNumber":3,"parameterNumberName":"V-component_of_WINDS"},"data":[0,0,0,0,0,0,0,0,0,0,0,0,0,0,0,0,0,0,0,0,0,0,0,0,0,0,0,0,0,0,0,0,0,0,0,0,0,0,0,0,0,0,0,0,0,0,0,0,0,0,0,0,0,0,0,0,0,0,2.4119,2.4118,0,2.4065,2.4065,2.4064,2.4036,2.4036,2.4036,2.4036,2.3975,2.3973,2.3972,0,0,0,0,0,0,0,0,0,0,0,0,0,2.4192,2.4191,2.4119,2.4118,2.4117,2.4065,2.4065,2.4064,2.4036,2.4036,2.4036,2.4036,2.3975,2.3974,2.3972,0,0,0,0,0,0,0,0,0,0,0,0,0,2.4152,2.4191,2.4119,2.4097,2.4095,2.4066,2.4065,2.4064,2.4036,2.4036,2.4036,2.4036,2.3976,2.3974,2.3971,2.3957,0,0,2.3964,2.3963,0,0,0,0,0,0,0,0,2.4154,2.4149,2.4101,2.4099,2.4096,2.4057,2.4068,2.4028,2.4036,2.4058,2.4036,2.4036,2.4002,2.3997,2.3987,2.3955,2.3952,2.3964,2.3962,2.3961,2.3961,0,0,0,0,0,0,0,2.4157,2.4151,2.4097,2.41,2.4097,2.4089,2.4083,2.406,2.4031,2.4056,2.4054,2.4048,2.4,2.399,2.3986,2.3951,2.3964,2.3962,2.396,2.3959,2.3906,2.3906,0,0,0,0,0,0,2.4164,2.4154,2.4099,2.4096,2.4126,2.4088,2.4081,2.407,2.4031,2.4025,2.4049,2.4047,2.3994,2.3988,2.3983,2.3965,2.3961,2.3959,2.3958,2.3906,2.3906,2.3906,0,0,0,0,0,0,2.4166,2.4159,2.4101,2.4124,2.4116,2.4087,2.4074,2.4069,2.4058,2.4025,2.4019,2.4043,2.3994,2.3987,2.3965,2.3963,2.3958,2.3956,2.3906,2.3906,2.3906,2.3928,0,0,0,0,0,0,2.4168,2.416,2.4155,2.4124,2.4115,2.4085,2.4074,2.4068,2.4055,2.4052,2.4019,2.4013,2.3993,2.3969,2.3963,2.3959,2.3954,2.3906,2.3906,2.3906,2.3927,2.3929,2.393,0,0,0,0,0,2.4171,2.4162,2.4155,2.4149,2.4109,2.4085,2.4079,2.4058,2.4055,2.4049,2.4028,2.4014,2.3964,2.3967,2.3959,2.3955,2.3906,2.3906,2.3906,2.3927,2.3929,2.393,0,0,0,0,0,0,2.4191,2.4158,2.4149,2.4131,2.4111,2.408,2.4072,2.4061,2.404,2.4038,2.4011,2.4004,2.3985,2.3968,2.3971,2.3941,2.3933,2.3932,2.3952,2.3954,2.3955,2.3959,2.3952,0,0,0,0,0,2.4194,2.4179,2.415,2.4136,2.4127,2.4102,2.409,2.4076,2.4054,2.4044,2.4022,2.3999,2.3979,2.3965,2.3944,2.3926,2.3918,2.3919,2.3921,2.3922,2.3921,2.391,2.3911,2.3906,2.3906,2.3906,0,0,2.4198,2.4178,2.417,2.414,2.4123,2.4107,2.4094,2.4077,2.4065,2.4041,2.402,2.4003,2.3976,2.3956,2.3946,2.3941,2.3921,2.3922,2.3924,2.3921,2.391,2.3911,2.3911,2.3906,2.3906,2.3906,0,0,2.4198,2.4182,2.4169,2.4154,2.4129,2.4113,2.411,2.4081,2.407,2.4049,2.4031,2.4015,2.398,2.3962,2.3948,2.3945,2.393,2.3938,2.3945,2.3935,2.3935,2.3936,2.3934,2.3934,2.3937,2.3937,2.3937,0,2.4206,2.4183,2.4164,2.4149,2.4136,2.4117,2.4104,2.4089,2.4058,2.4049,2.4045,2.4002,2.3982,2.3958,2.3958,2.3947,2.3943,2.3941,2.3937,2.3937,2.3937,2.3935,2.3935,2.3939,2.3938,2.3938,2.3938,0,2.4194,2.4178,2.4171,2.4144,2.4131,2.4117,2.4095,2.4083,2.4071,2.4055,2.4034,2.4011,2.3985,2.3979,2.3965,2.3953,2.3951,2.3943,2.3935,2.3939,2.3937,2.3936,2.394,2.394,2.3939,2.3939,0,0,2.4202,2.4168,2.4166,2.4154,2.4127,2.4114,2.4099,2.4077,2.4068,2.4048,2.4034,2.4006,2.3999,2.3983,2.3968,2.396,2.3959,2.3952,2.3951,2.3954,2.3944,2.395,2.3949,2.3951,2.3951,2.395,2.3946,0,2.4198,2.4172,2.4156,2.4136,2.4122,2.4105,2.4092,2.4074,2.4059,2.4043,2.4026,2.4007,2.3999,2.399,2.3981,2.3961,2.3956,2.3961,2.3936,2.3936,2.3943,2.3948,2.3954,2.3951,2.3945,2.3945,2.3945,0,2.4189,2.4172,2.4152,2.4129,2.4122,2.411,2.409,2.4075,2.4054,2.4044,2.4028,2.4014,2.3997,2.3992,2.3968,2.3972,2.3961,2.395,2.3949,2.3945,2.394,2.3943,2.395,2.3949,2.3944,2.3944,2.3944,0,2.4197,2.417,2.4154,2.4145,2.4117,2.411,2.4097,2.4076,2.4065,2.4046,2.4038,2.4017,2.4005,2.3989,2.3969,2.3967,2.3947,2.394,2.3937,2.3937,2.3931,2.3932,2.3935,2.3926,2.3926,2.3926,2.3926,0,2.4193,2.4181,2.4158,2.4148,2.4134,2.4116,2.4102,2.4088,2.407,2.4057,2.4041,2.4028,2.4004,2.3988,2.3972,2.3954,2.3949,2.394,2.3935,2.394,2.3942,2.3931,2.3931,2.3926,2.3926,2.3926,2.3926,0,2.4199,2.4183,2.4165,2.4141,2.4135,2.4126,2.4105,2.4095,2.4081,2.4064,2.4059,2.4035,2.4016,2.3996,2.3969,2.3958,2.3941,2.3936,2.3949,2.3946,2.3944,2.3944,2.394,2.3938,2.3932,2.3932,2.3932,0,2.4197,2.4188,2.4165,2.4156,2.4145,2.413,2.4119,2.4101,2.409,2.4067,2.4059,2.4039,2.4022,2.3992,2.3972,2.3952,2.3945,2.3945,2.3941,2.3947,2.3944,2.3945,2.3943,2.3945,2.3946,2.3946,2.3946,0,2.4195,2.4189,2.4174,2.4158,2.4145,2.4131,2.4115,2.4108,2.4087,2.4075,2.4057,2.4044,2.4019,2.3999,2.3977,2.3963,2.395,2.3948,2.3946,2.395,2.3958,2.3953,2.3951,2.3947,2.3947,2.3947,2.3947,2.3947,2.4197,2.4188,2.4171,2.4156,2.4143,2.413,2.4119,2.4105,2.409,2.4069,2.406,2.4041,2.4021,2.3991,2.3978,2.3962,2.3958,2.3955,2.3954,2.3954,2.3955,2.3962,2.3958,2.3958,2.3958,2.3958,2.3958,0,2.4194,2.4183,2.4169,2.415,2.4138,2.4131,2.4114,2.4104,2.4088,2.4072,2.4057,2.4036,2.4018,2.3998,2.3978,2.3969,2.3963,2.3965,2.3964,2.3961,2.396,2.3963,2.397,2.397,2.397,2.397,2.397,2.397,2.4191,2.4176,2.4168,2.4147,2.4136,2.412,2.4111,2.4098,2.4085,2.4064,2.4049,2.4037,2.4019,2.3998,2.3981,2.3975,2.3968,2.3971,2.3964,2.3962,2.3961,2.396,2.3963,2.397,2.397,2.3967,2.3967,2.3967]}]]